Home   Weather   Cheongju   Past weeks

Flag for South Korea Past Weather in Cheongju, South Korea — Yesterday and Last 2 Weeks

Now
57 °F

Clear.


Feels Like: 55 °F
Forecast: 42 / 76 °F
Wind: 10 mph from Southwest

Location: Chongju Ab

Current Time: Apr 28, 2017 at 11:28:19 pm

Latest Report: Apr 28, 2017 at 10:00 pm


Visibility: 10 mi

Pressure: 29.65 "Hg

Humidity: 63%

Dew Point: 45 °F

Location of CheongjuLocation

Past Weather in Cheongju — Graph

°F

Cheongju Temperature Yesterday

Maximum temperature yesterday: 66 °F (at 1:00 pm)
Minimum temperature yesterday: 36 °F (at 6:00 am)
Average temperature yesterday: 54 °F

High & Low Weather Summary for the Past Weeks

 TemperatureHumidityPressure
High79 °F (Apr 15, 4:00 pm)100% (Apr 17, 12:00 pm)30.15 "Hg (Apr 17, 12:00 pm)
Low36 °F (Apr 27, 6:00 am)17% (Apr 26, 3:00 pm)29.36 "Hg (Apr 18, 2:00 pm)
Average57 °F60%29.86 "Hg
* Reported Apr 13 10:00 pm — Apr 28 10:00 pm, Cheongju, Weather by CustomWeather, © 2017

Note: Actual official high and low records may vary slightly from our data, if they occured in-between our weather recording intervals... More about our weather records

Advertising

Cheongju Weather History for the Previous 24 Hours

Scroll right to see more
 ConditionsComfort  
Time TempWeatherWind HumidityBarometerVisibility
10:00 pm
Fri, Apr 28
57 °FClear.10 mph63%29.65 "Hg10 mi
9:00 pm57 °FClear.10 mph63%29.65 "Hg10 mi
8:00 pm61 °FClear.12 mph48%29.62 "Hg10 mi
7:00 pm64 °FSunny.14 mph37%29.59 "Hg10 mi
6:00 pm68 °FSunny.16 mph28%29.56 "Hg10 mi
5:00 pm70 °FSunny.22 mph23%29.59 "Hg10 mi
4:00 pm72 °FSunny.21 mph22%29.59 "Hg10 mi
3:00 pm72 °FSunny.23 mph22%29.62 "Hg10 mi
2:00 pm75 °FSunny.21 mph19%29.62 "Hg10 mi
1:00 pm72 °FSunny.22 mph31%29.65 "Hg10 mi
12:00 pm70 °FSunny.18 mph35%29.71 "Hg10 mi
11:00 am66 °FSunny.16 mph40%29.71 "Hg10 mi
10:00 am61 °FSunny.12 mph52%29.74 "Hg10 mi
9:00 am57 °FSunny.9 mph63%29.77 "Hg10 mi
8:00 am52 °FSunny.7 mph72%29.77 "Hg10 mi
7:00 am45 °FSunny.2 mph81%29.80 "Hg10 mi
6:00 am39 °FSunny.2 mph87%29.77 "Hg10 mi
5:00 am43 °FClear.2 mph81%29.80 "Hg10 mi
3:00 am43 °FClear.3 mph81%29.83 "Hg10 mi
2:00 am45 °FClear.3 mph76%29.83 "Hg10 mi
1:00 am45 °FClear.3 mph71%29.86 "Hg10 mi
12:00 am52 °FClear.12 mph50%29.86 "Hg10 mi
11:00 pm
Thu, Apr 27
48 °FClear.9 mph50%29.86 "Hg10 mi
Weather by CustomWeather, © 2017

See weather overviewHow to use our weather pages